Вернуться в каталог

AIST 1

АктивенНаукаPO
NORAD 39492·PAYLOAD·🇷🇺 Russia

Запущен Dec 28, 2013 с Plesetsk Cosmodrome

Loading…

Ближайшие Пролёты (ближайшие 24 часа)

TLE

СвежийSource: Space-Track

Эпоха: Sep 14, 2026, 13:50 UTC

1 39492U 13078C   26257.57708289  .00001300  00000-0  11255-3 0  9995
2 39492  82.4189 184.2695 0016477 343.8342  16.2352 14.96273909688616

Отслеживайте AIST 1 в реальном времени с AllMySat

Download on the App Store